Weather History for KSDL - August, 2013

Change the Weather History Date:

Thursday, August 8, 2013

  Actual Average Record
Temperature  
Mean Temperature 88 °F -  
Max Temperature 102 °F 100 °F 113 °F (2012)
Min Temperature 75 °F 81 °F 69 °F (1998)
Cooling Degree Days 24    
Growing Degree Days 38 (Base 50)    
Moisture  
Dew Point 44 °F    
Average Humidity 23    
Maximum Humidity 52    
Minimum Humidity 9    
Precipitation  
Precipitation 0.00 in - - ()
Sea Level Pressure  
Sea Level Pressure 29.79 in    
Wind  
Wind Speed 2 mph (SSW)    
Max Wind Speed 10 mph    
Max Gust Speed -    
Visibility 10 miles    
Events      
Averages and records for this station are not official NWS values.
T = Trace of Precipitation, MM = Missing Value Source: NWS Daily Summary

Daily Weather History Graph

Daily Weather History Graph

Search for Another Location

Airport or City:

Trip Planner

Search our weather history database for the weather conditions in past years. The results will help you decide how hot, cold, wet, or windy it might be!

Date:

Astronomy

Aug. 08, 2013 Rise Set
Actual Time 5:45 AM MST 7:20 PM MST
Civil Twilight 5:18 AM MST 7:47 PM MST
Nautical Twilight 4:46 AM MST 8:19 PM MST
Astronomical Twilight 4:12 AM MST 8:53 PM MST
Moon 7:27 AM MST (8/8) 8:11 PM MST (8/8)
Length of Visible Light 14h 29m
Length of Day
13h 35m
Waxing Crescent, 3% of the Moon is Illuminated
Aug 8
Waxing Crescent
Aug 14
First Quarter
Aug 20
Full
Aug 28
Last Quarter
Sep 5
New

Hourly Weather History & Observations

Time (MST) Temp. Heat Index Dew Point Humidity Pressure Visibility Wind Dir Wind Speed Gust Speed Precip Events Conditions
12:53 AM 86.0 °F - 50.0 °F 29% 29.80 in 10.0 mi Calm Calm - N/A   Clear
1:53 AM 82.9 °F - 51.1 °F 33% 29.79 in 10.0 mi Calm Calm - N/A   Clear
2:53 AM 80.1 °F 80.0 °F 54.0 °F 40% 29.79 in 10.0 mi Calm Calm - N/A   Clear
3:53 AM 78.1 °F - 55.9 °F 46% 29.80 in 10.0 mi Calm Calm - N/A   Clear
4:53 AM 75.9 °F - 57.0 °F 52% 29.81 in 10.0 mi Calm Calm - N/A   Clear
5:53 AM 77.0 °F - 57.0 °F 50% 29.83 in 10.0 mi Calm Calm - N/A   Clear
6:53 AM 80.1 °F - 51.1 °F 36% 29.83 in 10.0 mi Calm Calm - N/A   Clear
7:53 AM 82.9 °F 82.1 °F 55.9 °F 39% 29.85 in 10.0 mi Calm Calm - N/A   Clear
8:53 AM 88.0 °F 86.1 °F 55.0 °F 32% 29.85 in 10.0 mi SSE 3.5 mph - N/A   Clear
9:53 AM 91.9 °F - 46.0 °F 21% 29.85 in 10.0 mi South 5.8 mph - N/A   Clear
10:53 AM 93.9 °F - 39.9 °F 15% 29.85 in 10.0 mi SW 4.6 mph - N/A   Clear
11:53 AM 97.0 °F - 39.9 °F 14% 29.83 in 10.0 mi Calm Calm - N/A   Clear
12:53 PM 99.0 °F - 36.0 °F 11% 29.82 in 10.0 mi South 4.6 mph - N/A   Clear
1:53 PM 100.0 °F - 36.0 °F 11% 29.80 in 10.0 mi Variable 4.6 mph - N/A   Clear
2:53 PM 102.0 °F - 35.1 °F 10% 29.78 in 10.0 mi SW 10.4 mph - N/A   Clear
3:53 PM 100.9 °F - 33.1 °F 9% 29.75 in 10.0 mi Variable 3.5 mph - N/A   Clear
4:53 PM 102.0 °F - 34.0 °F 9% 29.74 in 10.0 mi SSW 5.8 mph - N/A   Clear
5:53 PM 100.9 °F - 34.0 °F 10% 29.72 in 10.0 mi SE 4.6 mph - N/A   Clear
6:53 PM 100.0 °F - 34.0 °F 10% 29.72 in 10.0 mi West 8.1 mph - N/A   Clear
7:53 PM 97.0 °F - 34.0 °F 11% 29.72 in 10.0 mi Calm Calm - N/A   Clear
8:53 PM 93.0 °F - 37.9 °F 15% 29.73 in 10.0 mi Calm Calm - N/A   Clear
9:53 PM 91.0 °F - 39.9 °F 17% 29.75 in 10.0 mi Calm Calm - N/A   Clear
10:53 PM 88.0 °F - 41.0 °F 19% 29.75 in 10.0 mi NNE 3.5 mph - N/A   Clear
11:53 PM 87.1 °F - 41.0 °F 20% 29.75 in 10.0 mi Calm Calm - N/A   Clear